| time (UTC) | temp C | wind direction | speed KPH | gust KPH | rain 1hr cm | rain 24hr cm | rain mn cm | humidity % | barometer mb |
| 20260906001500 | 18 | 5 | 0.0 | 3.2 | 0.00 | 0.00 | 0.00 | 86 | 1012.3 |
| 20260906000000 | 19 | 4 | 0.0 | 0.0 | 0.00 | 0.00 | 0.00 | 85 | 1011.9 |
| 20260905234500 | 20 | 0.0 | 0.0 | 0.00 | 0.00 | 0.00 | 85 | 1011.7 | |
| 20260905233000 | 20 | 0.0 | 0.0 | 0.00 | 0.00 | 0.00 | 83 | 1011.8 | |
| 20260905231500 | 21 | 0.0 | 0.0 | 0.00 | 0.00 | 0.00 | 79 | 1011.7 | |
| 20260905230000 | 21 | 112 | 0.0 | 0.0 | 0.00 | 0.00 | 0.00 | 77 | 1011.7 |
| 20260905224500 | 22 | 334 | 0.0 | 1.6 | 0.00 | 0.00 | 0.00 | 74 | 1011.4 |
| 20260905223000 | 22 | 0.0 | 0.0 | 0.00 | 0.00 | 0.00 | 70 | 1011.3 | |
| 20260905221500 | 23 | 0.0 | 0.0 | 0.00 | 0.00 | 0.00 | 67 | 1011.1 | |
| 20260905220000 | 23 | 315 | 0.0 | 1.6 | 0.00 | 0.00 | 0.00 | 65 | 1011.2 |
| 20260905214500 | 24 | 280 | 0.0 | 1.6 | 0.00 | 0.00 | 0.00 | 61 | 1011.0 |
| 20260905213000 | 24 | 14 | 3.2 | 6.4 | 0.00 | 0.00 | 0.00 | 61 | 1011.0 |
| 20260905211500 | 24 | 39 | 1.6 | 3.2 | 0.00 | 0.00 | 0.00 | 61 | 1010.8 |
| 20260905210000 | 25 | 129 | 0.0 | 1.6 | 0.00 | 0.00 | 0.00 | 59 | 1010.7 |
| 20260905204500 | 25 | 48 | 3.2 | 6.4 | 0.00 | 0.00 | 0.00 | 57 | 1010.7 |
| 20260905203000 | 25 | 63 | 3.2 | 6.4 | 0.00 | 0.00 | 0.00 | 58 | 1010.5 |
| 20260905201500 | 25 | 152 | 0.0 | 1.6 | 0.00 | 0.00 | 0.00 | 57 | 1010.6 |
| 20260905200000 | 26 | 4 | 3.2 | 4.8 | 0.00 | 0.00 | 0.00 | 54 | 1010.6 |
| 20260905194500 | 26 | 194 | 1.6 | 1.6 | 0.00 | 0.00 | 0.00 | 53 | 1010.5 |
| 20260905193000 | 27 | 300 | 0.0 | 3.2 | 0.00 | 0.00 | 0.00 | 50 | 1010.4 |
| 20260905191500 | 27 | 6 | 0.0 | 3.2 | 0.00 | 0.00 | 0.00 | 52 | 1010.5 |
| 20260905190000 | 27 | 66 | 3.2 | 8.0 | 0.00 | 0.00 | 0.00 | 51 | 1010.6 |
| 20260905184500 | 26 | 319 | 1.6 | 3.2 | 0.00 | 0.00 | 0.00 | 53 | 1010.7 |
| 20260905183000 | 26 | 24 | 3.2 | 6.4 | 0.00 | 0.00 | 0.00 | 54 | 1010.8 |
| 20260905181500 | 26 | 8 | 0.0 | 1.6 | 0.00 | 0.00 | 0.00 | 56 | 1011.0 |
| 20260905180000 | 26 | 291 | 1.6 | 4.8 | 0.00 | 0.00 | 0.00 | 51 | 1011.1 |
| 20260905174500 | 26 | 67 | 4.8 | 8.0 | 0.00 | 0.00 | 0.00 | 55 | 1011.1 |
| 20260905173000 | 26 | 60 | 3.2 | 9.7 | 0.00 | 0.00 | 0.00 | 59 | 1011.2 |
| 20260905171500 | 26 | 44 | 3.2 | 8.0 | 0.00 | 0.00 | 0.00 | 56 | 1011.3 |
| 20260905170000 | 26 | 337 | 3.2 | 6.4 | 0.00 | 0.00 | 0.00 | 55 | 1011.3 |
| 20260905164500 | 26 | 4 | 1.6 | 4.8 | 0.00 | 0.00 | 0.00 | 58 | 1011.4 |
| 20260905163000 | 25 | 47 | 4.8 | 9.7 | 0.00 | 0.00 | 0.00 | 60 | 1011.4 |
| 20260905161500 | 25 | 18 | 4.8 | 6.4 | 0.00 | 0.00 | 0.00 | 58 | 1011.4 |
| 20260905160000 | 25 | 35 | 1.6 | 4.8 | 0.00 | 0.00 | 0.00 | 62 | 1011.4 |
| 20260905154500 | 25 | 78 | 3.2 | 6.4 | 0.00 | 0.00 | 0.00 | 61 | 1011.4 |
| 20260905153000 | 26 | 278 | 0.0 | 3.2 | 0.00 | 0.00 | 0.00 | 59 | 1011.4 |
| 20260905151500 | 25 | 291 | 1.6 | 3.2 | 0.00 | 0.00 | 0.00 | 63 | 1011.5 |
| 20260905150000 | 25 | 103 | 3.2 | 6.4 | 0.00 | 0.00 | 0.00 | 60 | 1011.5 |
| 20260905144500 | 25 | 124 | 3.2 | 6.4 | 0.00 | 0.00 | 0.00 | 62 | 1011.5 |
| 20260905143000 | 24 | 17 | 0.0 | 1.6 | 0.00 | 0.00 | 0.00 | 64 | 1011.4 |
| 20260905141500 | 24 | 86 | 3.2 | 6.4 | 0.00 | 0.00 | 0.00 | 66 | 1011.4 |
| 20260905140000 | 24 | 251 | 3.2 | 4.8 | 0.00 | 0.00 | 0.00 | 68 | 1011.3 |
| 20260905134500 | 23 | 142 | 1.6 | 4.8 | 0.00 | 0.00 | 0.00 | 69 | 1011.4 |
| 20260905133000 | 23 | 51 | 1.6 | 6.4 | 0.00 | 0.00 | 0.00 | 71 | 1011.5 |
| 20260905131500 | 22 | 8 | 3.2 | 4.8 | 0.00 | 0.00 | 0.00 | 73 | 1011.6 |
| 20260905130000 | 22 | 51 | 1.6 | 4.8 | 0.00 | 0.00 | 0.00 | 76 | 1011.8 |
| 20260905124500 | 21 | 33 | 0.0 | 1.6 | 0.00 | 0.00 | 0.00 | 77 | 1011.9 |
| 20260905123000 | 20 | 38 | 0.0 | 1.6 | 0.00 | 0.00 | 0.00 | 84 | 1012.0 |
| 20260905121500 | 18 | 32 | 1.6 | 3.2 | 0.00 | 0.00 | 0.00 | 92 | 1011.9 |
| 20260905120000 | 17 | 68 | 1.6 | 1.6 | 0.00 | 0.00 | 0.00 | 97 | 1012.0 |
| 20260905114500 | 16 | 78 | 0.0 | 1.6 | 0.00 | 0.00 | 0.00 | 98 | 1011.8 |
| 20260905113000 | 16 | 44 | 0.0 | 1.6 | 0.00 | 0.00 | 0.00 | 98 | 1011.5 |
| 20260905111500 | 16 | 27 | 1.6 | 1.6 | 0.00 | 0.00 | 0.00 | 98 | 1011.3 |
| 20260905110000 | 16 | 16 | 0.0 | 1.6 | 0.00 | 0.00 | 0.00 | 98 | 1011.1 |
| 20260905104500 | 16 | 9 | 0.0 | 1.6 | 0.00 | 0.00 | 0.00 | 98 | 1011.1 |
| 20260905103000 | 16 | 0.0 | 0.0 | 0.00 | 0.00 | 0.00 | 98 | 1011.0 | |
| 20260905101500 | 16 | 20 | 0.0 | 1.6 | 0.00 | 0.00 | 0.00 | 98 | 1011.0 |
| 20260905100000 | 16 | 355 | 0.0 | 1.6 | 0.00 | 0.00 | 0.00 | 98 | 1010.9 |
| 20260905094500 | 16 | 24 | 0.0 | 1.6 | 0.00 | 0.00 | 0.00 | 98 | 1010.9 |
| 20260905093000 | 16 | 357 | 0.0 | 0.0 | 0.00 | 0.00 | 0.00 | 98 | 1010.7 |
| 20260905091500 | 16 | 0.0 | 0.0 | 0.00 | 0.00 | 0.00 | 97 | 1010.7 | |
| 20260905090000 | 17 | 13 | 0.0 | 1.6 | 0.00 | 0.00 | 0.00 | 97 | 1010.6 |
| 20260905084500 | 17 | 0.0 | 0.0 | 0.00 | 0.00 | 0.00 | 97 | 1010.6 | |
| 20260905083000 | 17 | 25 | 0.0 | 0.0 | 0.00 | 0.00 | 0.00 | 96 | 1010.7 |
| 20260905081500 | 17 | 0.0 | 0.0 | 0.00 | 0.00 | 0.00 | 96 | 1010.7 | |
| 20260905080000 | 17 | 34 | 0.0 | 0.0 | 0.00 | 0.00 | 0.00 | 95 | 1010.7 |
| 20260905074500 | 18 | 0.0 | 0.0 | 0.00 | 0.00 | 0.00 | 96 | 1010.7 | |
| 20260905073000 | 18 | 0.0 | 0.0 | 0.00 | 0.00 | 0.00 | 96 | 1010.5 | |
| 20260905071500 | 18 | 0.0 | 0.0 | 0.00 | 0.00 | 0.00 | 96 | 1010.6 | |
| 20260905070000 | 18 | 0.0 | 0.0 | 0.00 | 0.00 | 0.00 | 97 | 1010.7 | |
| 20260905064500 | 18 | 0.0 | 0.0 | 0.00 | 0.00 | 0.00 | 97 | 1010.8 | |
| 20260905063000 | 18 | 11 | 0.0 | 1.6 | 0.00 | 0.00 | 0.00 | 97 | 1010.9 |
| 20260905061500 | 18 | 21 | 0.0 | 1.6 | 0.00 | 0.00 | 0.00 | 97 | 1011.0 |
| 20260905060000 | 18 | 17 | 1.6 | 3.2 | 0.00 | 0.00 | 0.00 | 97 | 1011.1 |
| 20260905054500 | 18 | 2 | 0.0 | 0.0 | 0.00 | 0.00 | 0.00 | 97 | 1011.2 |
| 20260905053000 | 18 | 38 | 0.0 | 1.6 | 0.00 | 0.00 | 0.00 | 97 | 1011.3 |
| 20260905051500 | 18 | 51 | 1.6 | 3.2 | 0.00 | 0.00 | 0.00 | 97 | 1011.6 |
| 20260905050000 | 18 | 0.0 | 0.0 | 0.00 | 0.00 | 0.00 | 97 | 1011.6 | |
| 20260905044502 | 18 | 0.0 | 0.0 | 0.00 | 0.00 | 0.00 | 96 | 1011.7 | |
| 20260905043000 | 18 | 53 | 0.0 | 0.0 | 0.00 | 0.00 | 0.00 | 96 | 1011.7 |
| 20260905041500 | 18 | 0.0 | 0.0 | 0.00 | 0.00 | 0.00 | 95 | 1011.6 | |
| 20260905040000 | 18 | 58 | 3.2 | 6.4 | 0.00 | 0.00 | 0.61 | 95 | 1011.6 |
| 20260905034500 | 18 | 45 | 0.0 | 1.6 | 0.00 | 0.00 | 0.61 | 95 | 1011.7 |
| 20260905033000 | 18 | 12 | 0.0 | 1.6 | 0.00 | 0.00 | 0.61 | 95 | 1011.8 |
| 20260905031500 | 18 | 0.0 | 0.0 | 0.00 | 0.00 | 0.61 | 95 | 1011.8 | |
| 20260905030000 | 18 | 17 | 0.0 | 1.6 | 0.00 | 0.00 | 0.61 | 95 | 1011.9 |
| 20260905024500 | 18 | 20 | 0.0 | 1.6 | 0.00 | 0.00 | 0.61 | 95 | 1011.7 |
| 20260905023000 | 18 | 25 | 0.0 | 1.6 | 0.00 | 0.00 | 0.61 | 95 | 1011.6 |
| 20260905021500 | 18 | 25 | 1.6 | 3.2 | 0.00 | 0.00 | 0.61 | 95 | 1011.6 |
| 20260905020000 | 19 | 65 | 0.0 | 1.6 | 0.00 | 0.00 | 0.61 | 94 | 1011.7 |
| 20260905014500 | 19 | 0.0 | 0.0 | 0.00 | 0.00 | 0.61 | 93 | 1011.6 | |
| 20260905013000 | 19 | 106 | 0.0 | 0.0 | 0.00 | 0.00 | 0.61 | 93 | 1011.6 |
| 20260905011500 | 20 | 0.0 | 0.0 | 0.00 | 0.00 | 0.61 | 93 | 1011.5 | |
| 20260905010000 | 20 | 12 | 0.0 | 1.6 | 0.00 | 0.00 | 0.61 | 92 | 1011.5 |
| 20260905004500 | 20 | 0.0 | 0.0 | 0.00 | 0.00 | 0.61 | 91 | 1011.6 | |
| 20260905003000 | 20 | 31 | 1.6 | 3.2 | 0.00 | 0.00 | 0.61 | 90 | 1011.4 |